When you browse on this site, cookies collect data to enhance your experience and personalize the content and advertising you see.
Visit our Privacy Policy to learn more. By continuing to use the site, you agree to this use of cookies and data.
  • In Austria
  • List of Countries
  • For 7 days
  • Water Temperature
  • Weather Map
  • News
  • Weather Widgets
  • user-avatar
    Login

    Hourly Weather Angern

    Today, 12 December, Thursday

    Time Temperature Precipitation Wind Pressure Humidity
    00:00 +1°C° 0.5 mm 3 mps 749 mmHg 96%
    01:00 +1°C° 0.5 mm 3 mps 748 mmHg 96%
    02:00 +1°C° 0.2 mm 3 mps 748 mmHg 96%
    03:00 +2°C° 0.2 mm 3 mps 748 mmHg 95%
    04:00 +2°C° 0.2 mm 3 mps 747 mmHg 95%
    05:00 +2°C° 0.1 mm 3 mps 747 mmHg 94%
    06:00 +3°C° 0.1 mm 2 mps 748 mmHg 94%
    07:00 +3°C° 0.1 mm 2 mps 748 mmHg 94%
    08:00 +3°C° 0 mm 2 mps 748 mmHg 92%
    09:00 +2°C° 0 mm 3 mps 747 mmHg 90%
    10:00 +3°C° 0 mm 3 mps 747 mmHg 89%
    11:00 +3°C° 0 mm 3 mps 747 mmHg 86%
    12:00 +4°C° 0 mm 3 mps 747 mmHg 84%
    13:00 +4°C° 0 mm 3 mps 747 mmHg 81%
    14:00 +4°C° 0 mm 3 mps 747 mmHg 83%
    15:00 +3°C° 0 mm 3 mps 746 mmHg 86%
    16:00 +3°C° 0 mm 3 mps 746 mmHg 88%
    17:00 +2°C° 0 mm 3 mps 745 mmHg 89%
    18:00 +2°C° 0 mm 3 mps 745 mmHg 90%
    19:00 +2°C° 0 mm 3 mps 745 mmHg 91%
    20:00 +1°C° 0 mm 4 mps 744 mmHg 90%
    21:00 +1°C° 0 mm 4 mps 743 mmHg 89%
    22:00 0°C° 0 mm 4 mps 743 mmHg 88%
    23:00 0°C° 0 mm 4 mps 742 mmHg 87%

    Tomorrow, 13 December, Friday

    Time Temperature Precipitation Wind Pressure Humidity
    00:00 0°C° 0 mm 5 mps 741 mmHg 86%
    01:00 0°C° 0 mm 5 mps 740 mmHg 85%
    02:00 0°C° 0 mm 5 mps 739 mmHg 84%
    03:00 -1°C° 0 mm 6 mps 738 mmHg 84%
    04:00 -2°C° 0 mm 6 mps 737 mmHg 84%
    05:00 -2°C° 0 mm 6 mps 736 mmHg 83%
    06:00 -2°C° 0 mm 6 mps 735 mmHg 83%
    07:00 -2°C° 0 mm 6 mps 735 mmHg 82%
    08:00 -2°C° 0 mm 6 mps 734 mmHg 81%
    09:00 -2°C° 0 mm 6 mps 734 mmHg 79%
    10:00 -1°C° 0 mm 6 mps 733 mmHg 78%
    11:00 0°C° 0 mm 5 mps 733 mmHg 76%
    12:00 +1°C° 0 mm 5 mps 732 mmHg 74%
    13:00 +2°C° 0 mm 5 mps 732 mmHg 72%
    14:00 +1°C° 0 mm 5 mps 732 mmHg 76%
    15:00 +1°C° 0 mm 5 mps 732 mmHg 80%
    16:00 +1°C° 0 mm 4 mps 731 mmHg 84%
    17:00 +1°C° 0 mm 4 mps 732 mmHg 86%
    18:00 +3°C° 0 mm 4 mps 732 mmHg 88%
    19:00 +3°C° 0 mm 4 mps 732 mmHg 90%
    20:00 +3°C° 0.3 mm 4 mps 733 mmHg 91%
    21:00 +3°C° 0.3 mm 4 mps 733 mmHg 93%
    22:00 +3°C° 0.3 mm 4 mps 734 mmHg 94%
    23:00 +3°C° 0.5 mm 5 mps 734 mmHg 91%

    Day after tomorrow, 14 December, Saturday

    Time Temperature Precipitation Wind Pressure Humidity
    00:00 +3°C° 0.5 mm 6 mps 735 mmHg 87%
    01:00 +3°C° 0.5 mm 6 mps 735 mmHg 84%
    02:00 +3°C° 0 mm 6 mps 736 mmHg 84%
    03:00 +3°C° 0 mm 6 mps 736 mmHg 85%
    04:00 +3°C° 0 mm 6 mps 736 mmHg 85%
    05:00 +3°C° 0.2 mm 6 mps 737 mmHg 86%
    06:00 +3°C° 0.2 mm 6 mps 737 mmHg 87%
    07:00 +3°C° 0.2 mm 5 mps 738 mmHg 87%
    08:00 +3°C° 0.1 mm 6 mps 737 mmHg 86%
    09:00 +3°C° 0.1 mm 6 mps 737 mmHg 84%
    10:00 +3°C° 0.1 mm 6 mps 737 mmHg 82%
    11:00 +3°C° 0.4 mm 7 mps 737 mmHg 81%
    12:00 +4°C° 0.4 mm 7 mps 737 mmHg 80%
    13:00 +5°C° 0.4 mm 8 mps 736 mmHg 79%
    14:00 +4°C° 0.1 mm 8 mps 737 mmHg 77%
    15:00 +4°C° 0.1 mm 8 mps 739 mmHg 76%
    16:00 +4°C° 0.1 mm 8 mps 740 mmHg 74%
    17:00 +3°C° 0 mm 7 mps 741 mmHg 73%
    18:00 +2°C° 0 mm 6 mps 742 mmHg 72%
    19:00 +2°C° 0 mm 5 mps 743 mmHg 72%
    20:00 +2°C° 0 mm 5 mps 743 mmHg 76%
    21:00 +2°C° 0 mm 5 mps 744 mmHg 80%
    22:00 +2°C° 0 mm 5 mps 744 mmHg 84%
    23:00 +2°C° 0 mm 5 mps 744 mmHg 82%

    15 December, Sunday

    Time Temperature Precipitation Wind Pressure Humidity
    00:00 +3°C° 0 mm 4 mps 745 mmHg 80%
    01:00 +1°C° 0 mm 4 mps 745 mmHg 79%
    02:00 +1°C° 0 mm 4 mps 745 mmHg 81%
    03:00 +2°C° 0 mm 3 mps 745 mmHg 83%
    04:00 +1°C° 0 mm 3 mps 745 mmHg 85%
    05:00 +1°C° 0 mm 4 mps 745 mmHg 86%
    06:00 +3°C° 0 mm 4 mps 744 mmHg 88%
    07:00 +3°C° 0 mm 5 mps 743 mmHg 89%
    08:00 +5°C° 0.5 mm 5 mps 743 mmHg 86%
    09:00 +5°C° 0.5 mm 6 mps 743 mmHg 83%
    10:00 +6°C° 0.5 mm 7 mps 743 mmHg 80%
    11:00 +6°C° 0 mm 8 mps 744 mmHg 72%
    12:00 +6°C° 0 mm 10 mps 745 mmHg 64%
    13:00 +6°C° 0 mm 11 mps 745 mmHg 56%
    14:00 +5°C° 0 mm 10 mps 747 mmHg 59%
    15:00 +4°C° 0 mm 8 mps 748 mmHg 62%
    16:00 +2°C° 0 mm 7 mps 750 mmHg 65%
    17:00 +2°C° 0 mm 6 mps 751 mmHg 67%
    18:00 +1°C° 0 mm 5 mps 752 mmHg 69%
    19:00 +1°C° 0 mm 4 mps 753 mmHg 71%
    20:00 +1°C° 0 mm 4 mps 753 mmHg 74%
    21:00 +1°C° 0 mm 4 mps 753 mmHg 78%
    22:00 0°C° 0 mm 4 mps 754 mmHg 82%
    23:00 +1°C° 0 mm 4 mps 753 mmHg 81%

    16 December, Monday

    Time Temperature Precipitation Wind Pressure Humidity
    00:00 +1°C° 0 mm 5 mps 753 mmHg 80%
    01:00 +1°C° 0 mm 5 mps 753 mmHg 79%
    02:00 +2°C° 0 mm 5 mps 753 mmHg 80%
    03:00 +2°C° 0 mm 5 mps 754 mmHg 81%
    04:00 +2°C° 0 mm 5 mps 754 mmHg 83%
    05:00 +3°C° 0 mm 4 mps 754 mmHg 83%
    06:00 +3°C° 0 mm 4 mps 754 mmHg 84%
    07:00 +3°C° 0 mm 3 mps 754 mmHg 85%
    08:00 +3°C° 0 mm 3 mps 755 mmHg 85%
    09:00 +4°C° 0 mm 3 mps 755 mmHg 84%
    10:00 +4°C° 0 mm 3 mps 755 mmHg 84%
    11:00 +5°C° 0 mm 3 mps 755 mmHg 82%
    12:00 +5°C° 0 mm 3 mps 754 mmHg 79%
    13:00 +7°C° 0 mm 3 mps 754 mmHg 77%
    14:00 +5°C° 0 mm 3 mps 754 mmHg 81%
    15:00 +5°C° 0 mm 3 mps 754 mmHg 85%
    16:00 +5°C° 0 mm 3 mps 754 mmHg 89%
    17:00 +5°C° 0.1 mm 3 mps 754 mmHg 91%
    18:00 +5°C° 0.1 mm 3 mps 753 mmHg 93%
    19:00 +5°C° 0.1 mm 3 mps 753 mmHg 95%
    20:00 +5°C° 0.4 mm 3 mps 753 mmHg 96%
    21:00 +5°C° 0.4 mm 3 mps 753 mmHg 96%
    22:00 +5°C° 0.4 mm 3 mps 753 mmHg 97%
    23:00 +5°C° 0.1 mm 3 mps 752 mmHg 94%

    17 December, Tuesday

    Time Temperature Precipitation Wind Pressure Humidity
    00:00 +7°C° 0.1 mm 3 mps 752 mmHg 92%
    01:00 +7°C° 0.1 mm 3 mps 751 mmHg 90%
    02:00 +7°C° 0.1 mm 3 mps 751 mmHg 86%
    03:00 +6°C° 0.1 mm 4 mps 751 mmHg 83%
    04:00 +6°C° 0.1 mm 4 mps 751 mmHg 79%
    05:00 +6°C° 0 mm 4 mps 750 mmHg 78%
    06:00 +6°C° 0 mm 4 mps 750 mmHg 76%
    07:00 +6°C° 0 mm 4 mps 750 mmHg 74%
    08:00 +6°C° 0 mm 4 mps 750 mmHg 74%
    09:00 +7°C° 0 mm 4 mps 751 mmHg 73%
    10:00 +8°C° 0 mm 4 mps 751 mmHg 72%
    11:00 +8°C° 0 mm 4 mps 751 mmHg 71%
    12:00 +10°C° 0 mm 4 mps 751 mmHg 71%
    13:00 +10°C° 0 mm 5 mps 751 mmHg 70%
    14:00 +10°C° 0 mm 4 mps 751 mmHg 72%
    15:00 +10°C° 0 mm 4 mps 751 mmHg 75%
    16:00 +10°C° 0 mm 4 mps 751 mmHg 78%
    17:00 +10°C° 0 mm 4 mps 751 mmHg 80%
    18:00 +10°C° 0 mm 4 mps 751 mmHg 82%
    19:00 +10°C° 0 mm 4 mps 751 mmHg 84%
    20:00 +10°C° 0.7 mm 4 mps 752 mmHg 87%
    21:00 +8°C° 0.7 mm 4 mps 752 mmHg 90%
    22:00 +8°C° 0.7 mm 4 mps 753 mmHg 93%
    23:00 +8°C° 0.7 mm 4 mps 754 mmHg 92%
    Show more